Location: Tauranga
(37.6860°S, 176.1670°E)
Time: 13:26:27
(UTC+13:00)

Cosmos 540 Rocket - Pass Details

Date: 24 January 2019
Orbit: 741 x 753 km, 74.1° (Epoch: 16 February)

Event Time Altitude Azimuth Distance (km) Brightness Sun altitude
Rises 22:09:41 0° 192° (SSW) 3,239 7.6 -16.5°
Reaches altitude 10° 22:12:11 10° 185° (S) 2,306 6.7 -16.9°
Maximum altitude 22:17:11 45° 113° (ESE) 1,030 4.0 -17.6°
Enters shadow 22:19:07 31° 63° (ENE) 1,298 4.1 -17.9°
